sim
Sign-in with your pilot id or email,
or register
Callsign
Passwort

Schedule Details

Flight Number: RYR1101
Departure: Berlin Schonefeld Airport (EDDB) at 05:20
Arrival: Fuerteventura Airport (GCFV) at 10:30
Route: Ryanair Passenger Schedule. Enter filed route here before submitting Pirep.

Weather Information
Getting current METAR information for EDDB 222320Z 15004KT CAVOK 19/16 Q1021 NOSIG
Getting current METAR information for GCFV 222300Z AUTO 36018KT 9999 NCD 21/17 Q1018

Schedule Frequency

Route Map